• In Russia
  • List of Countries
  • For 7 days
  • Water Temperature
  • Satellite Maps
  • Weather Map
  • Weather Widgets
  • user-avatar
    Login

    Hourly Weather Dankon

    Today, 19 January, Saturday

    Time Temperature Precipitation Wind Pressure Humidity
    00:00 +16°C° 0 mm 0 mps 705 mmHg 90%
    01:00 +15°C° 0 mm 0 mps 705 mmHg 93%
    02:00 +15°C° 0 mm 0 mps 705 mmHg 94%
    03:00 +15°C° 0 mm 0 mps 705 mmHg 95%
    04:00 +15°C° 0 mm 0 mps 704 mmHg 95%
    05:00 +14°C° 0 mm 0 mps 704 mmHg 96%
    06:00 +14°C° 0 mm 0 mps 705 mmHg 96%
    07:00 +15°C° 0 mm 0 mps 705 mmHg 95%
    08:00 +18°C° 0 mm 0 mps 705 mmHg 82%
    09:00 +21°C° 0 mm 0 mps 706 mmHg 69%
    10:00 +24°C° 0 mm 0 mps 706 mmHg 56%
    11:00 +26°C° 0 mm 0 mps 706 mmHg 51%
    12:00 +27°C° 0 mm 0 mps 705 mmHg 47%
    13:00 +29°C° 0 mm 1 mps 705 mmHg 44%
    14:00 +29°C° 0 mm 1 mps 704 mmHg 45%
    15:00 +28°C° 0 mm 1 mps 704 mmHg 46%
    16:00 +28°C° 0 mm 1 mps 704 mmHg 46%
    17:00 +24°C° 0 mm 0 mps 703 mmHg 55%
    18:00 +21°C° 0 mm 0 mps 703 mmHg 64%
    19:00 +19°C° 0 mm 0 mps 703 mmHg 73%
    20:00 +18°C° 0 mm 0 mps 704 mmHg 76%
    21:00 +18°C° 0 mm 0 mps 704 mmHg 78%
    22:00 +17°C° 0 mm 0 mps 704 mmHg 80%
    23:00 +17°C° 0 mm 0 mps 704 mmHg 82%

    Tomorrow, 20 January, Sunday

    Time Temperature Precipitation Wind Pressure Humidity
    00:00 +16°C° 0 mm 0 mps 704 mmHg 84%
    01:00 +16°C° 0 mm 0 mps 704 mmHg 86%
    02:00 +16°C° 0 mm 0 mps 704 mmHg 88%
    03:00 +15°C° 0 mm 0 mps 704 mmHg 89%
    04:00 +15°C° 0 mm 0 mps 704 mmHg 91%
    05:00 +15°C° 0 mm 0 mps 704 mmHg 92%
    06:00 +15°C° 0 mm 0 mps 704 mmHg 93%
    07:00 +14°C° 0 mm 0 mps 705 mmHg 94%
    08:00 +18°C° 0 mm 0 mps 705 mmHg 80%
    09:00 +21°C° 0 mm 0 mps 706 mmHg 67%
    10:00 +25°C° 0 mm 0 mps 707 mmHg 53%
    11:00 +26°C° 0 mm 0 mps 707 mmHg 47%
    12:00 +28°C° 0 mm 0 mps 706 mmHg 40%
    13:00 +29°C° 0 mm 0 mps 705 mmHg 34%
    14:00 +28°C° 0 mm 0 mps 705 mmHg 34%
    15:00 +28°C° 0 mm 0 mps 704 mmHg 34%
    16:00 +27°C° 0 mm 0 mps 703 mmHg 35%
    17:00 +25°C° 0 mm 0 mps 703 mmHg 43%
    18:00 +22°C° 0 mm 0 mps 703 mmHg 51%
    19:00 +19°C° 0 mm 0 mps 703 mmHg 59%
    20:00 +19°C° 0 mm 0 mps 704 mmHg 61%
    21:00 +18°C° 0 mm 0 mps 704 mmHg 62%
    22:00 +18°C° 0 mm 0 mps 705 mmHg 64%
    23:00 +18°C° 0 mm 0 mps 705 mmHg 65%

    Day after tomorrow, 21 January, Monday

    Time Temperature Precipitation Wind Pressure Humidity
    00:00 +18°C° 0 mm 0 mps 705 mmHg 67%
    01:00 +18°C° 0 mm 0 mps 705 mmHg 68%
    02:00 +17°C° 0 mm 0 mps 705 mmHg 72%
    03:00 +17°C° 0 mm 0 mps 704 mmHg 76%
    04:00 +18°C° 0 mm 1 mps 704 mmHg 80%
    05:00 +18°C° 0 mm 1 mps 705 mmHg 84%
    06:00 +16°C° 0 mm 1 mps 705 mmHg 88%
    07:00 +15°C° 0 mm 1 mps 705 mmHg 93%
    08:00 +20°C° 0 mm 1 mps 706 mmHg 81%
    09:00 +23°C° 0 mm 1 mps 707 mmHg 68%
    10:00 +26°C° 0 mm 1 mps 708 mmHg 56%
    11:00 +27°C° 0 mm 1 mps 707 mmHg 52%
    12:00 +27°C° 0 mm 0 mps 707 mmHg 47%
    13:00 +28°C° 0 mm 0 mps 706 mmHg 42%
    14:00 +27°C° 0 mm 0 mps 705 mmHg 45%
    15:00 +27°C° 0 mm 0 mps 705 mmHg 47%
    16:00 +26°C° 0 mm 0 mps 704 mmHg 50%
    17:00 +24°C° 0 mm 0 mps 704 mmHg 57%
    18:00 +22°C° 0 mm 0 mps 704 mmHg 64%
    19:00 +20°C° 0 mm 0 mps 705 mmHg 70%
    20:00 +19°C° 0 mm 0 mps 705 mmHg 73%
    21:00 +19°C° 0 mm 0 mps 705 mmHg 75%
    22:00 +20°C° 0 mm 1 mps 706 mmHg 78%
    23:00 +19°C° 0 mm 1 mps 706 mmHg 82%

    22 January, Tuesday

    Time Temperature Precipitation Wind Pressure Humidity
    00:00 +19°C° 0 mm 1 mps 705 mmHg 85%
    01:00 +18°C° 0 mm 1 mps 705 mmHg 89%
    02:00 +18°C° 0 mm 1 mps 705 mmHg 90%
    03:00 +16°C° 0 mm 1 mps 705 mmHg 91%
    04:00 +16°C° 0 mm 1 mps 705 mmHg 92%
    05:00 +16°C° 0 mm 1 mps 705 mmHg 93%
    06:00 +15°C° 0 mm 1 mps 706 mmHg 95%
    07:00 +15°C° 0 mm 1 mps 706 mmHg 96%
    08:00 +18°C° 0 mm 1 mps 707 mmHg 83%
    09:00 +21°C° 0 mm 1 mps 708 mmHg 70%
    10:00 +24°C° 0 mm 1 mps 708 mmHg 57%
    11:00 +23°C° 0 mm 0 mps 708 mmHg 54%
    12:00 +24°C° 0 mm 0 mps 707 mmHg 51%
    13:00 +26°C° 0 mm 0 mps 707 mmHg 48%
    14:00 +25°C° 0 mm 0 mps 706 mmHg 49%
    15:00 +25°C° 0 mm 0 mps 705 mmHg 51%
    16:00 +25°C° 0 mm 0 mps 704 mmHg 52%
    17:00 +22°C° 0 mm 0 mps 705 mmHg 60%
    18:00 +20°C° 0 mm 0 mps 705 mmHg 69%
    19:00 +18°C° 0 mm 0 mps 705 mmHg 78%
    20:00 +17°C° 0 mm 0 mps 705 mmHg 80%
    21:00 +17°C° 0 mm 0 mps 706 mmHg 83%
    22:00 +16°C° 0 mm 0 mps 706 mmHg 85%
    23:00 +16°C° 0 mm 0 mps 706 mmHg 87%

    23 January, Wednesday

    Time Temperature Precipitation Wind Pressure Humidity
    00:00 +15°C° 0 mm 0 mps 706 mmHg 88%
    01:00 +15°C° 0 mm 0 mps 706 mmHg 89%
    02:00 +15°C° 0 mm 0 mps 705 mmHg 90%
    03:00 +14°C° 0 mm 0 mps 705 mmHg 91%
    04:00 +14°C° 0 mm 0 mps 705 mmHg 92%
    05:00 +14°C° 0 mm 0 mps 705 mmHg 93%
    06:00 +14°C° 0 mm 0 mps 706 mmHg 94%
    07:00 +13°C° 0 mm 0 mps 706 mmHg 95%
    08:00 +17°C° 0 mm 0 mps 707 mmHg 81%
    09:00 +20°C° 0 mm 0 mps 708 mmHg 68%
    10:00 +24°C° 0 mm 0 mps 708 mmHg 54%
    11:00 +25°C° 0 mm 0 mps 707 mmHg 49%
    12:00 +27°C° 0 mm 0 mps 707 mmHg 44%
    13:00 +30°C° 0 mm 1 mps 706 mmHg 39%
    14:00 +30°C° 0 mm 1 mps 705 mmHg 39%
    15:00 +29°C° 0 mm 1 mps 704 mmHg 39%
    16:00 +29°C° 0 mm 1 mps 703 mmHg 39%
    17:00 +26°C° 0 mm 1 mps 703 mmHg 49%
    18:00 +21°C° 0 mm 0 mps 704 mmHg 59%
    19:00 +19°C° 0 mm 0 mps 704 mmHg 68%
    20:00 +18°C° 0 mm 0 mps 704 mmHg 71%
    21:00 +17°C° 0 mm 0 mps 704 mmHg 73%
    22:00 +17°C° 0 mm 0 mps 705 mmHg 76%
    23:00 +16°C° 0 mm 0 mps 705 mmHg 77%

    24 January, Thursday

    Time Temperature Precipitation Wind Pressure Humidity
    00:00 +16°C° 0 mm 0 mps 705 mmHg 79%
    01:00 +16°C° 0 mm 0 mps 704 mmHg 81%
    02:00 +15°C° 0 mm 0 mps 704 mmHg 83%
    03:00 +15°C° 0 mm 0 mps 704 mmHg 85%
    04:00 +15°C° 0 mm 0 mps 704 mmHg 86%
    05:00 +14°C° 0 mm 0 mps 704 mmHg 88%
    06:00 +14°C° 0 mm 0 mps 705 mmHg 89%
    07:00 +14°C° 0 mm 0 mps 705 mmHg 91%
    08:00 +17°C° 0 mm 0 mps 706 mmHg 77%
    09:00 +21°C° 0 mm 0 mps 707 mmHg 64%
    10:00 +25°C° 0 mm 0 mps 708 mmHg 50%
    11:00 +26°C° 0 mm 0 mps 707 mmHg 46%
    12:00 +27°C° 0 mm 0 mps 706 mmHg 41%
    13:00 +31°C° 0 mm 1 mps 706 mmHg 36%
    14:00 +30°C° 0 mm 1 mps 705 mmHg 36%
    15:00 +30°C° 0 mm 1 mps 704 mmHg 36%
    16:00 +29°C° 0 mm 1 mps 703 mmHg 36%
    17:00 +27°C° 0 mm 1 mps 704 mmHg 45%
    18:00 +22°C° 0 mm 0 mps 704 mmHg 55%
    19:00 +19°C° 0 mm 0 mps 704 mmHg 64%
    20:00 +18°C° 0 mm 0 mps 704 mmHg 66%
    21:00 +18°C° 0 mm 0 mps 704 mmHg 68%
    22:00 +17°C° 0 mm 0 mps 705 mmHg 71%
    23:00 +17°C° 0 mm 0 mps 705 mmHg 73%
    Show more